Home   Weather   Norway   Hammerfest   Past weeks
Flag for Norway

Past Weather in Hammerfest, Norway — Yesterday and Last 2 Weeks

Currently: 28 °F. Passing clouds. (Weather station: Hammerfest, Norway). See more current weather

Past Weather in Hammerfest — Graph

°F

Hammerfest Temperature Yesterday

Maximum temperature yesterday: 27 °F (at 4:50 pm)
Minimum temperature yesterday: 21 °F (at 12:20 am)
Average temperature yesterday: 24 °F

High & Low Weather Summary for the Past Weeks

 TemperatureHumidityPressure
High43 °F (Apr 13, 10:50 am)100% (Apr 6, 11:50 pm)30.09 "Hg (Apr 6, 11:50 pm)
Low12 °F (Apr 6, 1:20 am)30% (Apr 5, 8:20 am)28.88 "Hg (Apr 11, 12:50 am)
Average30 °F75%29.64 "Hg
* Reported Apr 4 7:20 pm — Apr 19 7:50 pm, Hammerfest. Weather by CustomWeather, © 2024

Note: Actual official high and low records may vary slightly from our data, if they occured in-between our weather recording intervals... More about our weather records

Hammerfest Weather History for the Previous 24 Hours

Scroll right to see more
 ConditionsComfort  
Time TempWeatherWind HumidityBarometerVisibility
7:50 pm
Fri, Apr 19
28 °FSunny.9 mph47%30.04 "Hg10 mi
6:50 pm30 °FPassing clouds.12 mph47%30.04 "HgN/A
6:20 pm30 °FPassing clouds.12 mph47%30.01 "HgN/A
5:50 pm30 °FPassing clouds.12 mph51%30.01 "HgN/A
5:20 pm30 °FPassing clouds.14 mph51%30.01 "HgN/A
4:50 pm30 °FPassing clouds.14 mph51%30.01 "HgN/A
4:20 pm30 °FPassing clouds.16 mph51%30.01 "HgN/A
3:50 pm32 °FPassing clouds.13 mph51%30.01 "HgN/A
3:20 pm30 °FPassing clouds.16 mph51%30.01 "HgN/A
2:50 pm30 °FPassing clouds.14 mph51%30.01 "HgN/A
1:50 pm32 °FPassing clouds.16 mph44%30.01 "HgN/A
1:20 pm32 °FPassing clouds.15 mph44%30.01 "HgN/A
12:50 pm32 °FPassing clouds.13 mph44%30.01 "HgN/A
12:20 pm32 °FPassing clouds.15 mph44%29.98 "HgN/A
11:50 am32 °FPassing clouds.14 mph47%29.98 "HgN/A
11:20 am32 °FPassing clouds.15 mph47%29.98 "HgN/A
10:50 am32 °FPassing clouds.12 mph47%29.98 "HgN/A
10:20 am30 °FSunny.15 mph51%29.98 "Hg10 mi
9:50 am30 °FPassing clouds.12 mph51%29.98 "HgN/A
9:20 am30 °FPassing clouds.14 mph51%29.98 "HgN/A
8:50 am30 °FSunny.13 mph51%29.95 "Hg10 mi
8:20 am28 °FPassing clouds.8 mph51%29.98 "HgN/A
7:50 am28 °FPassing clouds.12 mph51%29.98 "HgN/A
7:20 am28 °FPassing clouds.9 mph47%29.98 "HgN/A
6:50 am27 °FPassing clouds.10 mph50%29.98 "HgN/A
6:20 am25 °FPassing clouds.7 mph54%29.98 "HgN/A
5:50 am25 °FSunny.10 mph54%29.95 "Hg10 mi
5:20 am25 °FCold.12 mph54%29.95 "HgN/A
4:50 am25 °FCold.12 mph50%29.95 "HgN/A
4:20 am25 °FCold.13 mph50%29.95 "HgN/A
3:20 am25 °FCold.12 mph50%29.98 "HgN/A
2:50 am25 °FCold.10 mph54%29.98 "HgN/A
1:50 am25 °FCold.13 mph54%29.98 "HgN/A
1:20 am25 °FCold.10 mph54%29.98 "HgN/A
12:50 am27 °FChilly.13 mph50%29.98 "HgN/A
12:20 am27 °FChilly.9 mph50%29.98 "HgN/A
11:50 pm
Thu, Apr 18
27 °FPassing clouds.10 mph50%30.01 "HgN/A
11:20 pm27 °FPassing clouds.14 mph50%30.01 "HgN/A
10:20 pm25 °FPassing clouds.12 mph59%30.01 "HgN/A
9:50 pm25 °FPassing clouds.14 mph59%30.01 "HgN/A
9:20 pm25 °FPassing clouds.14 mph59%30.01 "HgN/A
Weather by CustomWeather, © 2024

See weather overview